Temperature
5 4 4 4 3 3 3 3 3 2 2 2 3 3 2 2 2 3 2 2 2 2 2 2 2 2 2 2 2 2 2 2 2 2 3 4 4 5 5 5 6 6 6
4 4 4 3 3 3 3 3 2 2 2 2 2 2 2 2 2 2 2 2 2 1 1 2 2 1 1 1 1 1 1 1 1 1 2 3 3 4 4 5 5 5 5
4 4 3 3 3 3 3 2 2 2 2 2 2 2 1 1 1 1 1 1 1 1 1 1 1 0 1 1 1 0 0 1 1 0 1 2 2 3 3 3 4 4 4
4 4 3 3 3 2 2 2 2 2 1 1 1 1 1 1 1 1 0 0 0 0 -0 -0 -0 -1 -1 -1 -1 -1 -1 -0 -0 -0 -0 0 1 2 2 2 3 3 4
4 3 3 3 2 2 2 2 1 1 1 1 1 1 1 0 0 -0 -0 -1 -0 -0 -1 -1 -1 -1 -2 -2 -2 -2 -2 -2 -1 -1 -1 -1 -0 0 0 0 1 1 2
4 3 3 3 2 2 2 1 1 1 1 1 1 0 0 -0 -0 -1 -1 -1 -1 -1 -1 -1 -1 -2 -2 -2 -2 -2 -3 -3 -3 -2 -2 -2 -2 -1 -1 -1 -1 -0 0
4 3 3 2 2 2 1 1 1 1 0 0 0 -0 -0 -0 -1 -1 -1 -2 -2 -2 -2 -2 -2 -2 -2 -2 -3 -3 -3 -3 -3 -3 -3 -3 -3 -2 -2 -2 -2 -2 -1
4 3 3 2 2 2 1 1 1 0 0 -0 -0 -1 -1 -1 -1 -2 -2 -2 -2 -2 -2 -2 -3 -3 -3 -3 -3 -3 -3 -3 -4 -4 -4 -4 -3 -3 -3 -3 -3 -2 -2
3 3 3 2 2 1 1 1 0 -0 -0 -1 -1 -1 -1 -1 -2 -2 -2 -2 -2 -2 -3 -3 -3 -4 -4 -4 -4 -4 -4 -4 -4 -4 -4 -4 -4 -4 -4 -4 -3 -3 -3
3 3 2 2 1 1 1 0 -0 -0 -1 -1 -1 -1 -2 -2 -2 -3 -3 -3 -3 -3 -3 -3 -4 -4 -5 -5 -5 -5 -5 -5 -5 -4 -4 -4 -4 -4 -4 -4 -4 -4 -4
3 2 2 2 1 1 0 0 -0 -1 -1 -1 -1 -2 -2 -2 -3 -3 -4 -4 -4 -4 -4 -4 -4 -5 -5 -5 -6 -6 -6 -6 -5 -5 -5 -5 -4 -4 -4 -4 -5 -5 -5
2 2 2 1 1 0 0 -0 -1 -1 -1 -1 -2 -2 -2 -3 -3 -4 -4 -4 -5 -5 -5 -5 -5 -5 -6 -6 -6 -6 -6 -6 -6 -6 -6 -5 -5 -5 -5 -5 -5 -5 -5
2 2 1 1 0 0 -0 -1 -1 -1 -2 -2 -2 -2 -3 -3 -4 -4 -4 -5 -5 -5 -5 -5 -6 -6 -6 -6 -6 -6 -6 -6 -6 -6 -6 -6 -6 -6 -6 -5 -5 -5 -5
2 1 1 0 0 -0 -1 -1 -1 -2 -2 -2 -3 -3 -3 -4 -4 -4 -5 -5 -5 -5 -6 -6 -6 -6 -6 -6 -6 -6 -6 -7 -7 -7 -7 -7 -7 -6 -6 -6 -6 -6 -5
1 1 0 0 -0 -1 -1 -2 -2 -2 -3 -3 -3 -4 -4 -4 -4 -5 -5 -6 -6 -6 -6 -6 -6 -6 -6 -6 -6 -7 -7 -7 -7 -7 -7 -7 -7 -7 -7 -7 -7 -7 -6
1 1 0 -0 -1 -1 -2 -2 -2 -3 -3 -4 -4 -4 -5 -5 -5 -5 -6 -6 -6 -6 -7 -7 -7 -7 -7 -7 -7 -7 -7 -8 -8 -8 -8 -8 -8 -8 -7 -7 -7 -7 -7
1 0 -0 -1 -1 -2 -2 -2 -3 -3 -3 -4 -4 -4 -5 -5 -5 -6 -6 -6 -6 -7 -7 -7 -7 -8 -8 -8 -8 -8 -8 -8 -8 -8 -8 -8 -8 -8 -8 -8 -8 -7 -7
0 -0 -1 -1 -2 -2 -3 -3 -3 -3 -4 -4 -4 -5 -5 -5 -6 -6 -6 -7 -7 -7 -7 -8 -8 -8 -8 -8 -9 -9 -9 -8 -8 -8 -8 -8 -8 -8 -8 -8 -8 -8 -8
-0 -0 -1 -2 -2 -3 -3 -3 -4 -4 -4 -4 -4 -5 -5 -5 -6 -6 -7 -7 -7 -7 -8 -8 -8 -8 -9 -9 -9 -9 -9 -9 -9 -9 -9 -9 -8 -9 -9 -8 -8 -8 -8
-1 -1 -2 -2 -2 -3 -3 -4 -4 -4 -5 -5 -5 -5 -6 -6 -6 -6 -7 -7 -8 -8 -8 -8 -8 -9 -9 -9 -9 -9 -9 -9 -9 -9 -9 -9 -9 -9 -9 -9 -8 -8 -8
-1 -1 -2 -3 -3 -3 -4 -4 -4 -5 -5 -5 -6 -6 -6 -7 -7 -7 -7 -8 -8 -8 -8 -9 -9 -9 -9 -9 -9 -9 -9 -9 -9 -9 -9 -9 -9 -9 -9 -9 -8 -8 -8
-1 -2 -2 -3 -3 -4 -4 -4 -5 -5 -5 -6 -6 -6 -7 -7 -7 -7 -8 -8 -8 -8 -9 -9 -9 -9 -9 -9 -9 -9 -9 -9 -9 -9 -9 -9 -9 -9 -9 -9 -8 -8 -8
-2 -2 -3 -3 -4 -4 -4 -5 -5 -5 -6 -6 -6 -7 -7 -7 -7 -8 -8 -8 -8 -9 -9 -9 -9 -9 -9 -9 -9 -9 -9 -9 -9 -9 -9 -9 -9 -9 -9 -9 -9 -8 -8
-2 -3 -3 -3 -4 -4 -5 -5 -5 -6 -6 -6 -7 -7 -7 -8 -8 -8 -8 -8 -8 -9 -9 -9 -9 -9 -9 -9 -9 -9 -9 -9 -9 -9 -9 -9 -9 -9 -9 -9 -9 -9 -8
-3 -3 -4 -4 -4 -5 -5 -5 -6 -6 -6 -7 -7 -7 -7 -8 -8 -8 -8 -9 -9 -9 -9 -9 -9 -9 -9 -9 -9 -9 -9 -9 -9 -9 -9 -9 -9 -9 -9 -9 -9 -9 -8
-3 -4 -4 -4 -5 -5 -5 -6 -6 -6 -7 -7 -7 -7 -8 -8 -8 -8 -9 -9 -9 -9 -9 -9 -9 -9 -9 -9 -9 -9 -9 -9 -9 -9 -9 -9 -9 -9 -9 -9 -9 -9 -8
Wind_Speed
3 2 2 2 3 3 3 4 4 4 5 5 5 5 4 5 4 4 4 5 5 5 5 5 6 5 4 4 4 4 4 4 8 6 4 5 5 6 7 8 8 8 9
3 2 2 2 2 2 3 4 4 4 5 4 5 4 4 5 4 4 4 5 5 5 5 5 6 5 5 5 4 5 5 5 6 9 6 5 5 6 7 7 7 7 7
3 3 2 2 2 3 3 4 4 4 4 4 4 4 4 4 4 4 3 4 4 4 5 5 5 5 5 5 5 5 5 6 5 7 8 6 5 5 6 6 6 6 7
3 3 3 3 3 3 3 3 3 3 3 3 3 4 4 4 4 4 4 3 3 4 4 4 5 5 5 6 5 5 6 6 6 6 7 7 6 6 5 6 7 5 6
4 4 4 4 3 3 2 3 3 3 3 3 3 4 4 4 4 4 3 3 3 4 4 4 5 6 8 7 6 6 6 6 6 6 7 7 6 6 6 5 8 7 7
5 5 4 3 3 3 3 2 2 2 3 3 3 4 4 4 7 8 6 3 3 4 5 5 5 6 8 10 11 10 9 7 7 7 7 8 9 8 7 8 8 8 7
5 5 4 3 3 3 3 2 2 2 2 3 3 3 4 6 8 8 8 4 3 4 4 5 6 6 9 6 9 12 10 11 11 8 8 9 10 9 9 10 9 9 9
5 5 4 4 4 3 2 3 3 2 2 2 3 4 4 6 8 9 8 4 3 4 4 5 5 6 7 8 7 7 7 7 9 7 7 9 9 9 9 10 10 10 9
6 6 5 4 4 3 3 3 3 2 2 3 3 3 4 6 8 8 8 3 3 5 5 5 6 6 11 14 9 8 9 8 10 13 13 13 15 15 12 8 7 8 9
7 6 5 5 4 4 4 3 2 2 3 3 3 3 4 5 7 8 8 3 4 4 5 5 8 10 13 14 8 8 10 9 9 10 10 11 10 11 12 7 6 7 8
5 4 4 4 4 4 3 2 2 2 2 2 4 4 4 5 7 8 9 4 4 5 5 5 5 13 14 14 12 7 10 11 8 8 8 7 7 6 6 6 6 6 8
4 4 4 4 4 3 3 2 2 2 2 3 3 4 3 4 6 7 9 8 8 5 5 5 7 14 14 14 11 11 14 12 6 7 7 7 7 7 7 7 8 8 9
5 5 4 4 3 3 3 3 2 2 2 2 3 3 4 3 4 9 10 10 10 6 5 10 12 13 12 9 11 13 11 6 6 7 8 7 6 7 7 7 8 8 10
6 5 4 4 4 3 3 3 3 3 3 3 3 4 4 4 4 4 4 6 8 7 6 8 11 11 9 9 9 8 6 6 7 7 8 8 7 7 7 7 8 8 8
6 5 5 4 4 3 3 4 4 4 5 4 4 4 4 5 6 9 7 5 5 6 7 4 4 5 5 5 5 5 5 6 7 7 8 8 9 9 8 7 7 7 7
6 5 4 4 4 3 3 3 5 5 7 7 7 6 5 8 10 11 11 12 12 12 8 4 5 5 6 6 7 7 7 7 7 7 8 8 9 9 9 8 7 7 8
7 6 5 4 4 4 4 3 3 3 5 6 7 7 8 9 10 11 11 11 11 10 5 4 5 6 6 6 7 7 8 8 7 7 8 8 8 9 9 9 9 8 8
7 7 6 5 5 4 4 4 3 3 3 3 4 7 8 9 9 10 10 8 5 5 4 5 6 6 6 7 7 7 8 8 7 8 8 8 8 8 9 9 9 9 9
7 5 5 5 5 4 4 4 4 4 4 4 3 4 6 7 8 8 7 3 5 5 5 6 6 6 7 7 7 7 8 8 8 8 8 8 8 8 9 9 9 12 10
6 9 7 5 5 4 4 4 4 4 4 4 4 4 3 4 4 4 4 4 5 5 6 6 6 7 7 7 7 8 8 8 9 8 8 8 8 8 9 10 9 9 8
5 6 9 6 5 5 5 5 4 4 4 4 4 5 6 4 4 4 4 5 5 5 6 6 7 7 7 7 7 8 9 9 9 8 8 8 8 8 9 9 9 9 9
5 5 5 5 5 5 5 5 4 5 5 5 4 5 8 4 4 4 5 5 5 5 6 6 7 7 7 7 8 8 9 9 9 9 9 9 9 9 9 9 9 9 9
6 6 5 5 5 6 6 4 5 5 5 5 5 4 4 4 4 5 6 6 6 6 6 6 8 8 7 8 8 8 9 9 9 10 10 10 9 9 8 9 10 10 9
6 6 6 5 5 5 5 5 5 5 5 5 5 5 5 5 5 6 6 6 6 6 7 7 8 10 12 10 10 10 10 12 12 10 12 11 10 9 9 8 9 9 9
6 6 6 6 6 5 5 5 5 5 5 5 5 5 5 5 5 6 6 6 7 7 8 8 8 9 11 13 13 13 16 19 18 13 10 9 10 10 9 9 8 8 8
6 6 6 5 6 6 5 6 5 5 5 5 5 5 5 5 5 6 6 6 6 7 8 8 10 12 14 13 15 17 19 20 19 18 11 8 8 8 8 7 8 7 7
Wind_Direction
245 254 277 292 301 311 318 317 317 318 324 329 327 327 332 338 339 345 345 349 350 350 351 350 345 342 342 338 330 319 307 291 281 289 288 299 293 300 301 293 289 281 276
231 237 256 274 293 307 309 311 314 316 317 320 323 331 337 340 340 341 343 351 351 349 346 347 343 343 341 338 336 328 316 303 288 294 299 302 292 297 295 291 293 291 284
214 220 248 267 278 286 293 304 312 314 320 327 332 334 332 333 334 332 332 336 339 335 334 335 332 336 332 330 329 325 319 316 305 297 301 302 297 304 302 297 294 284 289
206 214 235 251 258 269 284 298 308 316 325 328 329 325 323 322 322 321 322 319 319 319 321 323 324 325 323 322 322 319 317 314 311 304 304 308 304 302 303 305 303 295 292
204 218 235 245 251 261 278 294 309 319 324 322 325 328 326 320 319 318 314 313 313 316 320 323 323 329 332 331 324 321 319 313 311 308 306 309 309 317 316 313 304 306 291
207 223 232 235 244 255 266 277 295 310 318 331 332 326 327 327 330 333 331 323 323 320 321 320 318 320 328 331 327 324 321 315 310 304 302 302 303 304 307 307 304 305 300
211 220 223 225 238 251 259 271 286 298 314 323 323 323 318 317 329 333 336 338 320 312 310 315 321 324 328 315 317 321 318 316 312 301 294 293 296 299 299 297 296 292 287
212 218 220 219 233 244 245 259 271 278 288 295 300 304 308 316 329 331 334 341 317 307 304 300 303 308 314 317 313 312 305 304 306 302 290 290 292 294 288 288 290 291 285
214 220 219 214 223 232 243 256 262 268 277 281 289 296 301 309 325 327 331 323 315 310 305 305 310 304 315 322 321 313 308 305 311 308 304 303 305 306 306 303 302 300 294
220 219 213 208 214 226 234 242 246 254 266 285 294 293 290 294 314 324 329 315 309 307 307 306 315 320 320 323 320 313 310 310 312 312 310 308 306 305 309 301 293 291 291
212 206 206 207 213 219 220 222 235 252 278 289 292 296 293 296 310 320 323 321 304 305 309 311 310 322 323 323 323 314 309 314 314 310 307 305 304 301 300 297 287 279 280
196 200 206 207 211 206 201 219 223 226 257 280 288 296 289 293 307 313 319 321 319 306 304 303 307 319 322 324 324 319 320 323 317 310 307 307 308 306 300 295 287 277 267
194 205 209 206 205 199 198 210 220 221 236 265 276 289 297 293 299 312 316 319 320 315 301 308 315 320 325 325 322 324 329 326 318 315 311 307 302 297 298 297 292 284 276
200 208 206 204 210 208 211 209 212 222 234 253 270 282 290 294 289 292 297 306 313 311 305 308 317 321 322 319 322 324 323 316 316 309 307 304 303 303 303 304 303 304 298
202 205 205 205 204 210 220 220 222 223 222 237 246 254 275 287 293 305 310 303 304 297 308 306 314 319 321 320 318 318 318 318 317 313 310 310 311 310 307 307 301 301 294
204 208 206 202 202 206 221 252 253 249 259 261 263 267 272 283 299 307 309 311 313 314 317 313 313 314 315 318 318 319 317 315 313 312 309 307 308 308 307 306 301 297 296
205 207 204 201 198 205 213 225 254 271 267 269 272 278 283 292 299 306 309 312 313 318 316 307 306 308 310 311 310 309 309 309 308 306 305 304 304 303 303 304 305 301 297
204 209 205 201 198 203 211 219 226 242 268 275 276 286 292 296 301 305 309 314 312 315 303 300 300 302 303 303 303 303 304 306 304 303 301 300 301 301 301 302 302 298 296
201 203 201 196 198 203 207 212 221 233 247 264 275 287 295 301 303 304 313 305 297 299 299 297 297 298 299 298 298 297 296 298 298 298 297 296 297 297 297 297 298 297 296
205 208 200 194 196 202 208 213 220 231 244 255 263 271 287 294 292 298 300 290 288 290 294 296 297 296 297 295 295 294 295 294 294 293 293 294 294 292 292 294 295 296 293
198 203 203 199 202 206 210 215 220 228 240 252 259 268 277 280 280 284 287 286 286 289 292 295 294 293 291 290 290 290 290 291 290 290 290 290 291 291 290 290 290 290 291
191 195 195 199 203 207 213 215 221 230 240 251 263 273 280 277 274 277 281 284 286 286 288 290 288 286 285 285 286 287 288 287 287 287 287 288 288 288 289 289 289 290 290
188 192 197 201 204 217 222 217 221 230 240 249 257 263 269 266 269 273 278 283 286 287 288 287 287 286 284 284 281 279 281 283 284 286 288 289 288 287 286 286 287 291 291
191 196 201 203 205 209 216 220 223 231 239 247 251 255 258 262 268 274 277 282 286 284 284 284 282 283 285 289 289 284 279 280 283 281 280 282 283 285 284 284 284 287 288
195 201 204 205 207 212 217 222 226 230 237 245 250 255 260 264 269 273 277 281 284 284 284 286 284 285 286 288 289 289 288 292 293 292 286 283 280 280 283 283 284 289 288
200 203 205 205 208 210 214 221 227 229 234 242 246 251 256 261 266 271 276 280 284 287 288 289 285 287 290 291 290 292 296 299 300 301 299 289 285 284 285 284 285 285 288
Height
1485 1484 1482 1480 1478 1477 1475 1473 1470 1468 1466 1464 1462 1460 1458 1456 1454 1452 1451 1449 1448 1446 1445 1444 1442 1441 1440 1438 1437 1436 1435 1434 1431 1429 1429 1429 1428 1428 1427 1427 1426 1426 1426
1482 1481 1480 1478 1476 1474 1472 1470 1468 1466 1464 1462 1460 1458 1456 1454 1452 1450 1449 1447 1445 1444 1442 1441 1439 1438 1437 1435 1433 1432 1431 1429 1427 1424 1423 1423 1422 1421 1420 1419 1419 1419 1418
1479 1478 1476 1475 1473 1471 1469 1467 1465 1463 1461 1459 1457 1455 1453 1451 1450 1448 1446 1445 1443 1441 1440 1438 1436 1435 1433 1431 1430 1428 1427 1425 1423 1420 1417 1417 1416 1415 1414 1412 1412 1411 1411
1475 1474 1473 1472 1470 1468 1466 1465 1463 1461 1459 1457 1455 1453 1451 1449 1447 1445 1444 1442 1441 1439 1437 1435 1434 1432 1430 1428 1426 1425 1423 1421 1419 1417 1414 1412 1410 1409 1408 1406 1404 1404 1403
1471 1471 1469 1468 1467 1465 1463 1462 1460 1458 1456 1454 1452 1450 1448 1447 1445 1443 1441 1439 1438 1436 1434 1432 1431 1429 1427 1425 1423 1421 1420 1417 1415 1413 1410 1408 1406 1404 1402 1400 1398 1396 1396
1468 1467 1466 1465 1463 1462 1460 1459 1457 1455 1453 1452 1449 1448 1446 1444 1442 1440 1439 1436 1434 1432 1431 1429 1427 1425 1423 1422 1420 1418 1416 1414 1411 1409 1407 1404 1402 1400 1398 1396 1394 1391 1388
1463 1463 1462 1461 1460 1458 1457 1455 1453 1452 1450 1448 1446 1445 1443 1441 1439 1437 1435 1433 1431 1429 1427 1425 1423 1421 1419 1417 1415 1413 1412 1410 1408 1406 1403 1400 1398 1395 1393 1391 1389 1387 1384
1459 1459 1458 1457 1456 1455 1453 1452 1450 1448 1446 1445 1443 1442 1440 1438 1436 1434 1432 1430 1428 1426 1424 1422 1419 1417 1415 1413 1410 1408 1406 1405 1403 1401 1398 1395 1393 1391 1389 1387 1384 1380 1378
1454 1454 1454 1453 1452 1451 1449 1448 1446 1445 1443 1441 1440 1438 1436 1435 1433 1431 1429 1426 1424 1422 1420 1418 1416 1413 1411 1409 1406 1403 1401 1399 1398 1395 1393 1390 1388 1386 1384 1381 1378 1375 1371
1450 1450 1449 1448 1447 1446 1445 1444 1443 1441 1440 1438 1437 1435 1433 1431 1429 1427 1425 1423 1420 1418 1416 1414 1412 1410 1407 1405 1403 1399 1396 1393 1391 1388 1386 1384 1382 1380 1378 1376 1373 1370 1367
1445 1445 1444 1444 1443 1442 1441 1440 1439 1438 1436 1435 1433 1432 1430 1428 1426 1424 1422 1420 1417 1415 1413 1410 1408 1406 1403 1401 1399 1395 1392 1389 1386 1383 1380 1377 1375 1373 1371 1370 1367 1365 1362
1440 1440 1439 1439 1439 1438 1437 1436 1435 1434 1433 1431 1430 1428 1427 1425 1423 1421 1419 1417 1414 1412 1409 1407 1404 1402 1399 1397 1394 1391 1388 1385 1381 1378 1375 1372 1369 1367 1365 1363 1361 1358 1356
1435 1435 1435 1434 1434 1433 1433 1432 1431 1430 1428 1427 1426 1424 1423 1421 1419 1418 1415 1413 1411 1408 1406 1403 1400 1398 1395 1392 1389 1387 1384 1380 1377 1373 1370 1367 1365 1362 1359 1356 1353 1351 1348
1430 1430 1430 1429 1429 1429 1428 1427 1427 1425 1424 1423 1422 1420 1419 1417 1416 1414 1411 1409 1407 1404 1402 1399 1396 1394 1391 1388 1385 1382 1379 1376 1373 1369 1366 1363 1360 1356 1353 1350 1347 1344 1340
1425 1425 1425 1424 1424 1424 1423 1423 1422 1421 1420 1419 1418 1417 1415 1413 1412 1410 1408 1405 1403 1400 1398 1395 1392 1389 1386 1383 1381 1378 1375 1372 1369 1365 1362 1358 1355 1352 1348 1345 1342 1339 1335
1420 1420 1419 1419 1419 1419 1419 1418 1417 1417 1416 1415 1414 1413 1411 1410 1408 1406 1404 1402 1399 1397 1394 1391 1388 1385 1382 1379 1376 1373 1371 1368 1364 1361 1358 1354 1351 1347 1343 1340 1338 1334 1331
1414 1414 1415 1414 1414 1414 1414 1413 1413 1413 1412 1411 1409 1408 1407 1405 1403 1401 1399 1397 1395 1393 1390 1387 1384 1381 1378 1375 1373 1369 1366 1364 1360 1357 1354 1350 1347 1343 1339 1336 1333 1329 1326
1409 1409 1409 1409 1409 1409 1409 1408 1408 1407 1407 1406 1405 1404 1402 1401 1399 1397 1395 1392 1390 1388 1385 1383 1380 1377 1374 1372 1369 1365 1362 1359 1356 1353 1349 1346 1342 1339 1335 1331 1328 1325 1322
1403 1403 1404 1404 1404 1404 1404 1403 1403 1402 1401 1401 1400 1399 1398 1396 1394 1392 1390 1388 1385 1383 1381 1378 1376 1373 1370 1368 1365 1361 1358 1355 1352 1348 1345 1341 1338 1334 1331 1327 1324 1321 1318
1397 1398 1398 1398 1398 1398 1398 1398 1398 1397 1397 1396 1395 1394 1392 1391 1389 1388 1386 1383 1381 1379 1376 1374 1371 1369 1366 1363 1360 1357 1354 1350 1347 1344 1340 1337 1334 1330 1326 1323 1320 1316 1313
1392 1392 1393 1393 1393 1393 1393 1393 1393 1392 1392 1391 1390 1389 1388 1386 1384 1383 1381 1379 1376 1374 1372 1369 1367 1364 1361 1358 1355 1352 1349 1345 1342 1339 1335 1332 1329 1325 1322 1319 1315 1312 1309
1387 1387 1387 1387 1388 1388 1388 1388 1388 1387 1387 1386 1385 1384 1383 1381 1379 1378 1376 1374 1372 1369 1367 1364 1361 1359 1356 1353 1350 1347 1343 1340 1337 1334 1331 1327 1324 1321 1317 1314 1311 1308 1304
1382 1382 1382 1382 1383 1383 1383 1382 1382 1382 1381 1381 1380 1379 1378 1376 1375 1373 1371 1369 1367 1364 1362 1359 1356 1353 1351 1348 1345 1342 1338 1335 1333 1329 1326 1322 1319 1316 1313 1309 1306 1303 1300
1376 1377 1377 1377 1377 1378 1378 1377 1377 1377 1376 1376 1375 1374 1373 1371 1370 1368 1366 1364 1361 1359 1357 1354 1351 1348 1345 1342 1340 1337 1334 1331 1328 1325 1321 1318 1315 1311 1308 1305 1302 1299 1296
1371 1371 1371 1372 1372 1372 1372 1372 1372 1372 1371 1371 1370 1369 1368 1366 1365 1363 1361 1359 1356 1354 1351 1349 1346 1343 1340 1337 1334 1331 1328 1326 1323 1320 1317 1314 1311 1307 1304 1301 1298 1295 1293
1365 1366 1366 1366 1367 1367 1367 1367 1367 1367 1366 1366 1365 1364 1363 1361 1360 1358 1356 1354 1351 1348 1346 1343 1341 1338 1335 1332 1329 1326 1323 1320 1318 1315 1313 1310 1306 1303 1300 1297 1295 1292 1290